Regional Weather Roundup
Issued by NWS

Home | Current Version | Previous Version | Text Only | Print | Product List | Glossary On
Versions: 1 2 3 4 5 6 7 8 9 10 11 12 13 14 15 16 17 18 19 20 21 22 23 24 25 26 27 28 29 30 31 32 33 34 35 36 37 38 39 40 41 42 43 44 45 46 47 48 49 50
000
ASUS43 KLMK 170902
RWRKY
KENTUCKY REGIONAL WEATHER ROUNDUP
NATIONAL WEATHER SERVICE LOUISVILLE KY
500 AM EDT WED SEP 17 2014

NOTE "FAIR" INDICATES FEW OR NO CLOUDS BELOW 12,000 FEET
WITH NO SIGNIFICANT WEATHER AND/OR OBSTRUCTIONS TO VISIBILITY.

KYZ001>023-026-027-061>063-070>075-171000-
WESTERN AND SOUTH CENTRAL KENTUCKY

CITY           SKY/WX    TMP DP  RH WIND       PRES   REMARKS
PADUCAH        FOG       48  46  93 CALM      30.06F VSB 1/2
HENDERSON      CLEAR     45  41  87 CALM      30.08F
OWENSBORO      CLEAR     48  48 100 CALM      30.07F
HOPKINSVILLE   PTCLDY    52  52 100 N2        30.05F
BOWLING GREEN  PTCLDY    53  50  89 CALM      30.06F FOG
GLASGOW        CLOUDY    52  52 100 CALM      30.05F FOG
$$

KYZ024-025-028>034-038-045-046-053-171000-
NORTH CENTRAL KENTUCKY

CITY           SKY/WX    TMP DP  RH WIND       PRES   REMARKS
LOUISVILLE/SDF MOCLDY    54  52  93 E3        30.07F
LOUISVILLE/LOU CLOUDY    51  50  96 CALM      30.08F FOG
FORT KNOX      CLEAR     47  46  97 CALM      30.06S
$$

KYZ035>037-039>044-047>052-055>060-089>105-171000-
NORTHEAST KENTUCKY

CITY           SKY/WX    TMP DP  RH WIND       PRES   REMARKS
LEXINGTON      CLOUDY    55  51  86 E6        30.08S
COVINGTON      CLEAR     48  46  93 CALM      30.08S FOG
FRANKFORT      FOG       47  47 100 CALM      30.07S VSB 1/4
$$

KYZ054-064>069-076>088-106>120-171000-
SOUTHEAST KENTUCKY

CITY           SKY/WX    TMP DP  RH WIND       PRES   REMARKS
JACKSON        CLOUDY    56  53  90 CALM      30.06F
LONDON         CLOUDY    58  54  86 N6        30.06F
SOMERSET       NOT AVBL
MIDDLESBORO    CLOUDY    56  55  97 CALM      30.05F
MONTICELLO     CLOUDY    58  56  93 NE5       30.07F
$$




USA.gov is the U.S. government's official web portal to all federal, state and local government web resources and services.